Погода в Асикаге

Япония     36°20′06″N   139°27′07″E
темп.,
°C
ветер,
м/с
пор.,
м/с
влажн.,
%
обл.,
%
осадки,
мм/ч
давл.,
гПа
погр.,
м
17 января, пн
пн1700:00+5зсз24520 0.0 1014129
03:00+4зсз37584 0.0 1013196
06:00+4сз2561100 0.0 1013139
09:00+5з1351100 0.0 1014285
12:00+10зсз2632100 0.0 10121435
15:00+10зсз462361 0.0 10111422
18:00+7зсз46295 0.0 1011388
21:00+5зсз353930 0.0 1011249
18 января, вт
вт1800:00+4з394261 0.0 1009397
03:00+4зсз5104038 0.0 10091119
06:00+3зсз484087 0.0 10111058
09:00+3сз6113132 0.0 10131853
12:00+5сз8132262 0.0 10122716
15:00+5сз916250 0.0 10122285
18:00+3зсз817310 0.0 10151902
21:00+3з610320 0.0 10171240
19 января, ср
ср1900:00+2з510340 0.0 1017731
03:00+1зсз510420 0.0 1017491
06:00+1зсз49458 0.0 1017358
09:00+2зсз463795 0.0 1018425
12:00+6з232499 0.0 10161110
15:00+7юз342014 0.0 10141781
18:00+5ю252639 0.0 1014343
21:00+4з113673 0.0 101495
20 января, чт
чт2000:00+3всв124231 0.0 1012124
03:00+2ссв1250100 0.0 1010138
06:00+2сз2451100 0.0 1011255
09:00+3зсз34492 0.0 1013626
12:00+7зсз712230 0.0 10122624
15:00+7сз713270 0.0 10132605
18:00+5зсз48391 0.0 10171476
21:00+3зсз38490 0.0 1019591
21 января, пт
пт2100:00+2зсз413420 0.0 10201737
03:00+2зсз614370 0.0 10201713
06:00+2зсз612401 0.0 10221358
09:00+3зсз614340 0.0 10231740
12:00+6зсз7122211 0.0 10222444
15:00+6сз7132536 0.0 10232702
18:00+4зсз59330 0.0 10241294
21:00+3зсз49420 0.0 1025716